| time (UTC) | temp F | wind direction | speed MPH | gust MPH | rain 1hr in | rain 24hr in | rain mn in | humidity % | barometer mb |
| 20260507193002 | 81 | 139 | 0.0 | 8.0 | 0.00 | 0.00 | 0.00 | 13 | 1011.0 |
| 20260507192501 | 81 | 156 | 4.0 | 8.0 | 0.00 | 0.00 | 0.00 | 13 | 1011.1 |
| 20260507192103 | 81 | 174 | 1.0 | 7.0 | 0.00 | 0.00 | 0.00 | 13 | 1011.2 |
| 20260507191602 | 80 | 102 | 1.0 | 7.0 | 0.00 | 0.00 | 0.00 | 13 | 1011.2 |
| 20260507191100 | 80 | 125 | 1.0 | 9.0 | 0.00 | 0.00 | 0.00 | 13 | 1011.3 |
| 20260507190558 | 80 | 105 | 4.0 | 10.0 | 0.00 | 0.00 | 0.00 | 13 | 1011.4 |
| 20260507190058 | 80 | 134 | 4.0 | 10.0 | 0.00 | 0.00 | 0.00 | 13 | 1011.6 |
| 20260507185556 | 80 | 96 | 1.0 | 6.0 | 0.00 | 0.00 | 0.00 | 13 | 1011.7 |
| 20260507185056 | 79 | 129 | 3.0 | 9.0 | 0.00 | 0.00 | 0.00 | 14 | 1011.8 |
| 20260507184602 | 79 | 78 | 2.0 | 9.0 | 0.00 | 0.00 | 0.00 | 13 | 1011.8 |
| 20260507184054 | 79 | 88 | 1.0 | 8.0 | 0.00 | 0.00 | 0.00 | 14 | 1011.9 |
| 20260507183551 | 78 | 106 | 3.0 | 8.0 | 0.00 | 0.00 | 0.00 | 13 | 1011.9 |
| 20260507183053 | 79 | 83 | 3.0 | 8.0 | 0.00 | 0.00 | 0.00 | 13 | 1012.0 |
| 20260507182550 | 79 | 142 | 2.0 | 7.0 | 0.00 | 0.00 | 0.00 | 14 | 1012.1 |
| 20260507182050 | 79 | 90 | 2.0 | 7.0 | 0.00 | 0.00 | 0.00 | 13 | 1012.2 |
| 20260507181559 | 78 | 90 | 2.0 | 7.0 | 0.00 | 0.00 | 0.00 | 14 | 1012.3 |
| 20260507181048 | 78 | 165 | 1.0 | 7.0 | 0.00 | 0.00 | 0.00 | 14 | 1012.3 |
| 20260507180549 | 78 | 172 | 3.0 | 7.0 | 0.00 | 0.00 | 0.00 | 14 | 1012.4 |
| 20260507180046 | 78 | 149 | 3.0 | 7.0 | 0.00 | 0.00 | 0.00 | 14 | 1012.5 |
| 20260507175548 | 79 | 97 | 2.0 | 7.0 | 0.00 | 0.00 | 0.00 | 14 | 1012.6 |
| 20260507175046 | 78 | 84 | 3.0 | 10.0 | 0.00 | 0.00 | 0.00 | 14 | 1012.6 |
| 20260507174553 | 78 | 123 | 3.0 | 10.0 | 0.00 | 0.00 | 0.00 | 14 | 1012.7 |
| 20260507174046 | 78 | 57 | 1.0 | 5.0 | 0.00 | 0.00 | 0.00 | 14 | 1012.7 |
| 20260507173544 | 78 | 64 | 1.0 | 6.0 | 0.00 | 0.00 | 0.00 | 14 | 1012.7 |
| 20260507173043 | 77 | 124 | 1.0 | 7.0 | 0.00 | 0.00 | 0.00 | 14 | 1012.7 |
| 20260507172542 | 77 | 115 | 0.0 | 5.0 | 0.00 | 0.00 | 0.00 | 14 | 1012.7 |
| 20260507172042 | 77 | 135 | 1.0 | 5.0 | 0.00 | 0.00 | 0.00 | 14 | 1012.8 |
| 20260507171543 | 77 | 124 | 2.0 | 5.0 | 0.00 | 0.00 | 0.00 | 14 | 1012.8 |
| 20260507171042 | 77 | 126 | 1.0 | 7.0 | 0.00 | 0.00 | 0.00 | 14 | 1012.9 |
| 20260507170542 | 76 | 154 | 2.0 | 8.0 | 0.00 | 0.00 | 0.00 | 14 | 1012.9 |
| 20260507170141 | 76 | 139 | 2.0 | 8.0 | 0.00 | 0.00 | 0.00 | 14 | 1012.8 |
| 20260507165539 | 76 | 132 | 1.0 | 7.0 | 0.00 | 0.00 | 0.00 | 14 | 1012.9 |
| 20260507165042 | 76 | 130 | 2.0 | 7.0 | 0.00 | 0.00 | 0.00 | 15 | 1012.9 |
| 20260507164540 | 76 | 101 | 2.0 | 7.0 | 0.00 | 0.00 | 0.00 | 15 | 1013.0 |
| 20260507164045 | 76 | 87 | 1.0 | 8.0 | 0.00 | 0.00 | 0.00 | 14 | 1013.0 |
| 20260507163540 | 76 | 112 | 1.0 | 8.0 | 0.00 | 0.00 | 0.00 | 15 | 1012.9 |
| 20260507163040 | 77 | 104 | 0.0 | 6.0 | 0.00 | 0.00 | 0.00 | 15 | 1013.0 |
| 20260507162538 | 76 | 109 | 1.0 | 6.0 | 0.00 | 0.00 | 0.00 | 16 | 1013.0 |
| 20260507162038 | 75 | 173 | 2.0 | 8.0 | 0.00 | 0.00 | 0.00 | 16 | 1013.1 |
| 20260507161539 | 76 | 107 | 1.0 | 8.0 | 0.00 | 0.00 | 0.00 | 15 | 1013.0 |
| 20260507161041 | 76 | 92 | 2.0 | 6.0 | 0.00 | 0.00 | 0.00 | 15 | 1013.1 |
| 20260507160538 | 76 | 97 | 1.0 | 4.0 | 0.00 | 0.00 | 0.00 | 16 | 1013.1 |
| 20260507160036 | 75 | 110 | 1.0 | 6.0 | 0.00 | 0.00 | 0.00 | 15 | 1013.1 |
| 20260507155536 | 75 | 105 | 2.0 | 6.0 | 0.00 | 0.00 | 0.00 | 15 | 1013.1 |
| 20260507155037 | 75 | 111 | 2.0 | 6.0 | 0.00 | 0.00 | 0.00 | 15 | 1013.2 |
| 20260507154534 | 75 | 93 | 1.0 | 7.0 | 0.00 | 0.00 | 0.00 | 16 | 1013.1 |
| 20260507154035 | 75 | 94 | 1.0 | 7.0 | 0.00 | 0.00 | 0.00 | 16 | 1013.2 |
| 20260507153533 | 75 | 117 | 1.0 | 6.0 | 0.00 | 0.00 | 0.00 | 17 | 1013.2 |
| 20260507153037 | 75 | 147 | 2.0 | 5.0 | 0.00 | 0.00 | 0.00 | 16 | 1013.3 |
| 20260507152534 | 75 | 120 | 0.0 | 4.0 | 0.00 | 0.00 | 0.00 | 16 | 1013.2 |
| 20260507152036 | 74 | 130 | 0.0 | 4.0 | 0.00 | 0.00 | 0.00 | 16 | 1013.3 |
| 20260507151531 | 74 | 13 | 1.0 | 3.0 | 0.00 | 0.00 | 0.00 | 17 | 1013.3 |
| 20260507151031 | 74 | 10 | 0.0 | 3.0 | 0.00 | 0.00 | 0.00 | 17 | 1013.3 |
| 20260507150530 | 74 | 9 | 0.0 | 3.0 | 0.00 | 0.00 | 0.00 | 17 | 1013.3 |
| 20260507150039 | 74 | 9 | 1.0 | 4.0 | 0.00 | 0.00 | 0.00 | 17 | 1013.4 |
| 20260507145530 | 74 | 5 | 0.0 | 4.0 | 0.00 | 0.00 | 0.00 | 17 | 1013.4 |
| 20260507145031 | 74 | 349 | 0.0 | 3.0 | 0.00 | 0.00 | 0.00 | 17 | 1013.4 |
| 20260507144528 | 73 | 355 | 1.0 | 3.0 | 0.00 | 0.00 | 0.00 | 17 | 1013.5 |
| 20260507144028 | 73 | 355 | 0.0 | 4.0 | 0.00 | 0.00 | 0.00 | 18 | 1013.4 |
| 20260507143532 | 73 | 355 | 0.0 | 4.0 | 0.00 | 0.00 | 0.00 | 17 | 1013.5 |
| 20260507143033 | 73 | 346 | 0.0 | 2.0 | 0.00 | 0.00 | 0.00 | 17 | 1013.5 |
| 20260507142528 | 73 | 346 | 0.0 | 2.0 | 0.00 | 0.00 | 0.00 | 17 | 1013.5 |
| 20260507142026 | 73 | 346 | 0.0 | 0.0 | 0.00 | 0.00 | 0.00 | 17 | 1013.5 |
| 20260507141525 | 72 | 346 | 0.0 | 0.0 | 0.00 | 0.00 | 0.00 | 17 | 1013.5 |
| 20260507141024 | 72 | 346 | 0.0 | 1.0 | 0.00 | 0.00 | 0.00 | 19 | 1013.5 |
| 20260507140523 | 71 | 346 | 0.0 | 1.0 | 0.00 | 0.00 | 0.00 | 19 | 1013.4 |
| 20260507140122 | 71 | 346 | 0.0 | 1.0 | 0.00 | 0.00 | 0.00 | 19 | 1013.3 |
| 20260507135524 | 70 | 346 | 0.0 | 1.0 | 0.00 | 0.00 | 0.00 | 20 | 1013.3 |
| 20260507135020 | 70 | 346 | 0.0 | 1.0 | 0.00 | 0.00 | 0.00 | 20 | 1013.2 |
| 20260507134520 | 69 | 346 | 0.0 | 1.0 | 0.00 | 0.00 | 0.00 | 20 | 1013.2 |
| 20260507134020 | 69 | 346 | 0.0 | 1.0 | 0.00 | 0.00 | 0.00 | 19 | 1013.2 |
| 20260507133519 | 68 | 346 | 0.0 | 1.0 | 0.00 | 0.00 | 0.00 | 20 | 1013.1 |
| 20260507133019 | 68 | 346 | 0.0 | 1.0 | 0.00 | 0.00 | 0.00 | 20 | 1013.0 |
| 20260507132518 | 67 | 346 | 0.0 | 1.0 | 0.00 | 0.00 | 0.00 | 20 | 1013.0 |
| 20260507132018 | 67 | 346 | 0.0 | 1.0 | 0.00 | 0.00 | 0.00 | 20 | 1013.0 |
| 20260507131526 | 66 | 346 | 0.0 | 1.0 | 0.00 | 0.00 | 0.00 | 20 | 1013.0 |
| 20260507131017 | 65 | 346 | 0.0 | 1.0 | 0.00 | 0.00 | 0.00 | 21 | 1013.0 |
| 20260507130519 | 65 | 346 | 0.0 | 1.0 | 0.00 | 0.00 | 0.00 | 21 | 1012.9 |
| 20260507130019 | 65 | 346 | 0.0 | 1.0 | 0.00 | 0.00 | 0.00 | 21 | 1012.9 |
| 20260507125516 | 65 | 346 | 0.0 | 2.0 | 0.00 | 0.00 | 0.00 | 21 | 1012.9 |
| 20260507125016 | 64 | 346 | 0.0 | 2.0 | 0.00 | 0.00 | 0.00 | 21 | 1013.0 |
| 20260507124515 | 64 | 346 | 0.0 | 3.0 | 0.00 | 0.00 | 0.00 | 21 | 1012.9 |
| 20260507124016 | 64 | 346 | 1.0 | 3.0 | 0.00 | 0.00 | 0.00 | 21 | 1012.8 |
| 20260507123515 | 64 | 346 | 1.0 | 3.0 | 0.00 | 0.00 | 0.00 | 21 | 1012.8 |
| 20260507123014 | 64 | 346 | 0.0 | 1.0 | 0.00 | 0.00 | 0.00 | 21 | 1012.7 |
| 20260507122514 | 64 | 346 | 0.0 | 1.0 | 0.00 | 0.00 | 0.00 | 21 | 1012.7 |
| 20260507122014 | 64 | 346 | 0.0 | 1.0 | 0.00 | 0.00 | 0.00 | 21 | 1012.8 |
| 20260507121514 | 64 | 346 | 0.0 | 1.0 | 0.00 | 0.00 | 0.00 | 21 | 1012.8 |
| 20260507121013 | 64 | 346 | 0.0 | 1.0 | 0.00 | 0.00 | 0.00 | 21 | 1012.9 |
| 20260507120512 | 64 | 346 | 0.0 | 3.0 | 0.00 | 0.00 | 0.00 | 21 | 1012.8 |
| 20260507120024 | 64 | 346 | 0.0 | 3.0 | 0.00 | 0.00 | 0.00 | 21 | 1012.8 |
| 20260507115511 | 64 | 349 | 0.0 | 2.0 | 0.00 | 0.00 | 0.00 | 21 | 1012.9 |
| 20260507115010 | 64 | 349 | 0.0 | 3.0 | 0.00 | 0.00 | 0.00 | 21 | 1012.9 |
| 20260507114510 | 64 | 349 | 0.0 | 3.0 | 0.00 | 0.00 | 0.00 | 20 | 1012.9 |
| 20260507114012 | 64 | 349 | 1.0 | 2.0 | 0.00 | 0.00 | 0.00 | 20 | 1012.9 |
| 20260507113509 | 64 | 349 | 1.0 | 2.0 | 0.00 | 0.00 | 0.00 | 20 | 1012.9 |
| 20260507113007 | 65 | 349 | 0.0 | 1.0 | 0.00 | 0.00 | 0.00 | 19 | 1012.9 |
| 20260507112510 | 65 | 349 | 0.0 | 1.0 | 0.00 | 0.00 | 0.00 | 19 | 1012.9 |
| 20260507112005 | 66 | 349 | 0.0 | 2.0 | 0.00 | 0.00 | 0.00 | 19 | 1012.9 |
| 20260507111507 | 66 | 349 | 0.0 | 2.0 | 0.00 | 0.00 | 0.00 | 19 | 1012.9 |
| 20260507111028 | 66 | 349 | 0.0 | 2.0 | 0.00 | 0.00 | 0.00 | 18 | 1013.0 |
| 20260507110504 | 67 | 349 | 0.0 | 2.0 | 0.00 | 0.00 | 0.00 | 18 | 1013.0 |
| 20260507110003 | 67 | 349 | 0.0 | 2.0 | 0.00 | 0.00 | 0.00 | 18 | 1013.0 |
| 20260507105502 | 67 | 349 | 0.0 | 2.0 | 0.00 | 0.00 | 0.00 | 18 | 1013.0 |
| 20260507105003 | 67 | 349 | 0.0 | 2.0 | 0.00 | 0.00 | 0.00 | 18 | 1013.0 |
| 20260507104503 | 67 | 349 | 1.0 | 3.0 | 0.00 | 0.00 | 0.00 | 18 | 1013.0 |
| 20260507104003 | 66 | 349 | 1.0 | 3.0 | 0.00 | 0.00 | 0.00 | 18 | 1013.1 |
| 20260507103501 | 66 | 349 | 1.0 | 3.0 | 0.00 | 0.00 | 0.00 | 19 | 1013.0 |
| 20260507103002 | 66 | 349 | 1.0 | 3.0 | 0.00 | 0.00 | 0.00 | 18 | 1013.0 |
| 20260507102502 | 67 | 349 | 1.0 | 3.0 | 0.00 | 0.00 | 0.00 | 19 | 1013.0 |
| 20260507102002 | 67 | 349 | 2.0 | 3.0 | 0.00 | 0.00 | 0.00 | 19 | 1012.9 |
| 20260507101503 | 66 | 349 | 1.0 | 3.0 | 0.00 | 0.00 | 0.00 | 19 | 1013.0 |
| 20260507101001 | 66 | 349 | 0.0 | 2.0 | 0.00 | 0.00 | 0.00 | 19 | 1012.9 |
| 20260507100600 | 66 | 349 | 0.0 | 2.0 | 0.00 | 0.00 | 0.00 | 19 | 1012.9 |
| 20260507100100 | 66 | 349 | 0.0 | 2.0 | 0.00 | 0.00 | 0.00 | 19 | 1012.9 |
| 20260507095603 | 66 | 349 | 0.0 | 2.0 | 0.00 | 0.00 | 0.00 | 19 | 1012.9 |
| 20260507095103 | 66 | 349 | 0.0 | 2.0 | 0.00 | 0.00 | 0.00 | 19 | 1012.9 |
| 20260507094559 | 67 | 349 | 0.0 | 1.0 | 0.00 | 0.00 | 0.00 | 19 | 1012.9 |
| 20260507094058 | 67 | 349 | 0.0 | 2.0 | 0.00 | 0.00 | 0.00 | 20 | 1012.8 |
| 20260507093558 | 67 | 349 | 1.0 | 2.0 | 0.00 | 0.00 | 0.00 | 20 | 1012.8 |
| 20260507093059 | 66 | 350 | 0.0 | 2.0 | 0.00 | 0.00 | 0.00 | 20 | 1012.9 |
| 20260507092601 | 67 | 350 | 0.0 | 3.0 | 0.00 | 0.00 | 0.00 | 20 | 1013.0 |
| 20260507092055 | 67 | 350 | 0.0 | 4.0 | 0.00 | 0.00 | 0.00 | 20 | 1013.0 |
| 20260507091557 | 68 | 355 | 2.0 | 4.0 | 0.00 | 0.00 | 0.00 | 19 | 1013.0 |
| 20260507091054 | 68 | 27 | 0.0 | 2.0 | 0.00 | 0.00 | 0.00 | 19 | 1013.1 |
| 20260507090552 | 68 | 27 | 0.0 | 2.0 | 0.00 | 0.00 | 0.00 | 20 | 1013.0 |
| 20260507090056 | 68 | 27 | 0.0 | 2.0 | 0.00 | 0.00 | 0.00 | 20 | 1013.0 |
| 20260507085550 | 69 | 27 | 0.0 | 2.0 | 0.00 | 0.00 | 0.00 | 19 | 1013.1 |
| 20260507085050 | 69 | 27 | 0.0 | 3.0 | 0.00 | 0.00 | 0.00 | 19 | 1013.0 |
| 20260507084551 | 70 | 27 | 1.0 | 3.0 | 0.00 | 0.00 | 0.00 | 19 | 1013.1 |
| 20260507084052 | 70 | 27 | 1.0 | 2.0 | 0.00 | 0.00 | 0.00 | 19 | 1013.1 |
| 20260507083549 | 70 | 27 | 0.0 | 2.0 | 0.00 | 0.00 | 0.00 | 20 | 1013.1 |
| 20260507083049 | 70 | 27 | 0.0 | 4.0 | 0.00 | 0.00 | 0.00 | 20 | 1013.0 |
| 20260507082548 | 70 | 27 | 1.0 | 4.0 | 0.00 | 0.00 | 0.00 | 20 | 1013.0 |
| 20260507082051 | 70 | 27 | 0.0 | 2.0 | 0.00 | 0.00 | 0.00 | 22 | 1013.1 |
| 20260507081550 | 70 | 27 | 0.0 | 5.0 | 0.00 | 0.00 | 0.00 | 22 | 1013.1 |
| 20260507081046 | 70 | 27 | 0.0 | 2.0 | 0.00 | 0.00 | 0.00 | 24 | 1013.1 |
| 20260507080548 | 70 | 27 | 0.0 | 2.0 | 0.00 | 0.00 | 0.00 | 25 | 1013.1 |
| 20260507080049 | 70 | 27 | 0.0 | 1.0 | 0.00 | 0.00 | 0.00 | 26 | 1013.1 |
| 20260507075544 | 70 | 27 | 0.0 | 4.0 | 0.00 | 0.00 | 0.00 | 25 | 1013.1 |
| 20260507075043 | 70 | 27 | 1.0 | 4.0 | 0.00 | 0.00 | 0.00 | 25 | 1013.2 |
| 20260507074558 | 70 | 27 | 1.0 | 2.0 | 0.00 | 0.00 | 0.00 | 26 | 1013.1 |
| 20260507074041 | 70 | 27 | 0.0 | 3.0 | 0.00 | 0.00 | 0.00 | 26 | 1013.0 |
| 20260507073544 | 70 | 27 | 0.0 | 4.0 | 0.00 | 0.00 | 0.00 | 26 | 1012.9 |
| 20260507073040 | 70 | 27 | 2.0 | 5.0 | 0.00 | 0.00 | 0.00 | 26 | 1012.9 |
| 20260507072541 | 71 | 25 | 2.0 | 4.0 | 0.00 | 0.00 | 0.00 | 26 | 1012.9 |
| 20260507072038 | 71 | 340 | 0.0 | 4.0 | 0.00 | 0.00 | 0.00 | 26 | 1012.6 |
| 20260507071538 | 70 | 340 | 0.0 | 4.0 | 0.00 | 0.00 | 0.00 | 26 | 1012.6 |
| 20260507071038 | 71 | 340 | 2.0 | 4.0 | 0.00 | 0.00 | 0.00 | 26 | 1012.5 |
| 20260507070537 | 71 | 345 | 1.0 | 4.0 | 0.00 | 0.00 | 0.00 | 26 | 1012.5 |
| 20260507070036 | 71 | 355 | 0.0 | 3.0 | 0.00 | 0.00 | 0.00 | 25 | 1012.6 |
| 20260507065535 | 71 | 355 | 1.0 | 3.0 | 0.00 | 0.00 | 0.00 | 25 | 1012.6 |
| 20260507065035 | 71 | 355 | 1.0 | 4.0 | 0.00 | 0.00 | 0.00 | 25 | 1012.5 |
| 20260507064535 | 71 | 360 | 1.0 | 5.0 | 0.00 | 0.00 | 0.00 | 25 | 1012.5 |
| 20260507064037 | 71 | 360 | 2.0 | 5.0 | 0.00 | 0.00 | 0.00 | 25 | 1012.4 |
| 20260507063536 | 71 | 360 | 2.0 | 6.0 | 0.00 | 0.00 | 0.00 | 25 | 1012.3 |
| 20260507063035 | 71 | 5 | 3.0 | 6.0 | 0.00 | 0.00 | 0.00 | 26 | 1012.2 |
| 20260507062535 | 71 | 15 | 3.0 | 7.0 | 0.00 | 0.00 | 0.00 | 26 | 1012.2 |
| 20260507062038 | 71 | 83 | 2.0 | 5.0 | 0.00 | 0.00 | 0.00 | 26 | 1012.2 |
| 20260507061535 | 71 | 106 | 2.0 | 4.0 | 0.00 | 0.00 | 0.00 | 26 | 1012.1 |
| 20260507061034 | 71 | 126 | 1.0 | 3.0 | 0.00 | 0.00 | 0.00 | 25 | 1012.0 |
| 20260507060534 | 72 | 130 | 0.0 | 2.0 | 0.00 | 0.00 | 0.00 | 25 | 1011.9 |
| 20260507060033 | 72 | 130 | 0.0 | 2.0 | 0.00 | 0.00 | 0.00 | 25 | 1011.8 |
| 20260507055534 | 72 | 130 | 0.0 | 2.0 | 0.00 | 0.00 | 0.00 | 25 | 1011.7 |
| 20260507055035 | 72 | 130 | 1.0 | 2.0 | 0.00 | 0.00 | 0.00 | 24 | 1011.7 |
| 20260507054533 | 72 | 130 | 0.0 | 3.0 | 0.00 | 0.00 | 0.00 | 24 | 1011.7 |
| 20260507054033 | 72 | 130 | 1.0 | 3.0 | 0.00 | 0.00 | 0.00 | 24 | 1011.6 |
| 20260507053534 | 72 | 130 | 1.0 | 3.0 | 0.00 | 0.00 | 0.00 | 24 | 1011.6 |
| 20260507053035 | 72 | 130 | 0.0 | 3.0 | 0.00 | 0.00 | 0.00 | 24 | 1011.6 |
| 20260507052532 | 72 | 130 | 0.0 | 2.0 | 0.00 | 0.00 | 0.00 | 24 | 1011.6 |
| 20260507052033 | 72 | 130 | 0.0 | 2.0 | 0.00 | 0.00 | 0.00 | 24 | 1011.6 |
| 20260507051533 | 72 | 130 | 0.0 | 2.0 | 0.00 | 0.00 | 0.00 | 24 | 1011.5 |
| 20260507051033 | 72 | 130 | 0.0 | 1.0 | 0.00 | 0.00 | 0.00 | 24 | 1011.5 |
| 20260507050532 | 72 | 130 | 0.0 | 1.0 | 0.00 | 0.00 | 0.00 | 24 | 1011.5 |
| 20260507050032 | 72 | 130 | 0.0 | 1.0 | 0.00 | 0.00 | 0.00 | 24 | 1011.5 |
| 20260507045532 | 72 | 130 | 0.0 | 1.0 | 0.00 | 0.00 | 0.00 | 24 | 1011.5 |
| 20260507045033 | 72 | 130 | 0.0 | 1.0 | 0.00 | 0.00 | 0.00 | 24 | 1011.4 |
| 20260507044533 | 72 | 130 | 0.0 | 1.0 | 0.00 | 0.00 | 0.00 | 24 | 1011.4 |
| 20260507044030 | 73 | 130 | 0.0 | 1.0 | 0.00 | 0.00 | 0.00 | 24 | 1011.4 |
| 20260507043530 | 73 | 130 | 0.0 | 2.0 | 0.00 | 0.00 | 0.00 | 24 | 1011.5 |
| 20260507043032 | 72 | 130 | 0.0 | 2.0 | 0.00 | 0.00 | 0.00 | 24 | 1011.5 |
| 20260507042530 | 72 | 130 | 0.0 | 1.0 | 0.00 | 0.00 | 0.00 | 24 | 1011.4 |
| 20260507042030 | 73 | 130 | 0.0 | 1.0 | 0.00 | 0.00 | 0.00 | 24 | 1011.4 |
| 20260507041531 | 73 | 130 | 0.0 | 1.0 | 0.00 | 0.00 | 0.00 | 24 | 1011.3 |
| 20260507041032 | 73 | 130 | 0.0 | 1.0 | 0.00 | 0.00 | 0.00 | 24 | 1011.3 |
| 20260507040532 | 73 | 130 | 0.0 | 0.0 | 0.00 | 0.00 | 0.00 | 24 | 1011.3 |
| 20260507040030 | 73 | 130 | 0.0 | 0.0 | 0.00 | 0.00 | 0.00 | 24 | 1011.3 |
| 20260507035533 | 73 | 130 | 0.0 | 0.0 | 0.00 | 0.00 | 0.00 | 24 | 1011.2 |
| 20260507035029 | 74 | 130 | 0.0 | 0.0 | 0.00 | 0.00 | 0.00 | 24 | 1011.2 |
| 20260507034529 | 74 | 130 | 0.0 | 1.0 | 0.00 | 0.00 | 0.00 | 24 | 1011.1 |
| 20260507034030 | 74 | 130 | 0.0 | 2.0 | 0.00 | 0.00 | 0.00 | 24 | 1011.1 |
| 20260507033529 | 74 | 130 | 0.0 | 2.0 | 0.00 | 0.00 | 0.00 | 23 | 1011.1 |
| 20260507033031 | 74 | 130 | 0.0 | 2.0 | 0.00 | 0.00 | 0.00 | 23 | 1011.0 |
| 20260507032529 | 74 | 130 | 0.0 | 2.0 | 0.00 | 0.00 | 0.00 | 23 | 1011.0 |
| 20260507032029 | 75 | 130 | 0.0 | 2.0 | 0.00 | 0.00 | 0.00 | 23 | 1010.8 |
| 20260507031529 | 75 | 130 | 0.0 | 1.0 | 0.00 | 0.00 | 0.00 | 23 | 1010.8 |
| 20260507031032 | 75 | 130 | 0.0 | 1.0 | 0.00 | 0.00 | 0.00 | 23 | 1010.7 |
| 20260507030531 | 75 | 130 | 0.0 | 1.0 | 0.00 | 0.00 | 0.00 | 23 | 1010.6 |
| 20260507030027 | 75 | 130 | 0.0 | 1.0 | 0.00 | 0.00 | 0.00 | 23 | 1010.5 |
| 20260507025528 | 75 | 130 | 0.0 | 2.0 | 0.00 | 0.00 | 0.00 | 23 | 1010.4 |
| 20260507025028 | 76 | 130 | 0.0 | 2.0 | 0.00 | 0.00 | 0.00 | 23 | 1010.5 |
| 20260507024529 | 76 | 130 | 0.0 | 3.0 | 0.00 | 0.00 | 0.00 | 22 | 1010.4 |
| 20260507024027 | 76 | 130 | 1.0 | 3.0 | 0.00 | 0.00 | 0.00 | 22 | 1010.3 |
| 20260507023527 | 76 | 130 | 1.0 | 5.0 | 0.00 | 0.00 | 0.00 | 22 | 1010.3 |
| 20260507023029 | 76 | 130 | 2.0 | 5.0 | 0.00 | 0.00 | 0.00 | 22 | 1010.1 |
| 20260507022530 | 76 | 130 | 1.0 | 3.0 | 0.00 | 0.00 | 0.00 | 22 | 1010.2 |
| 20260507022032 | 76 | 130 | 0.0 | 4.0 | 0.00 | 0.00 | 0.00 | 22 | 1010.2 |
| 20260507021527 | 76 | 130 | 1.0 | 4.0 | 0.00 | 0.00 | 0.00 | 22 | 1010.2 |
| 20260507021027 | 77 | 130 | 1.0 | 7.0 | 0.00 | 0.00 | 0.00 | 22 | 1010.1 |
| 20260507020527 | 77 | 130 | 3.0 | 7.0 | 0.00 | 0.00 | 0.00 | 21 | 1010.1 |
| 20260507020026 | 77 | 111 | 2.0 | 6.0 | 0.00 | 0.00 | 0.00 | 21 | 1010.0 |
| 20260507015530 | 77 | 124 | 0.0 | 6.0 | 0.00 | 0.00 | 0.00 | 22 | 1010.1 |
| 20260507015027 | 77 | 139 | 0.0 | 7.0 | 0.00 | 0.00 | 0.00 | 22 | 1010.0 |
| 20260507014541 | 77 | 128 | 3.0 | 7.0 | 0.00 | 0.00 | 0.00 | 21 | 1009.9 |
| 20260507014025 | 77 | 126 | 0.0 | 4.0 | 0.00 | 0.00 | 0.00 | 21 | 1010.0 |
| 20260507013526 | 78 | 124 | 0.0 | 3.0 | 0.00 | 0.00 | 0.00 | 21 | 1010.0 |
| 20260507013026 | 78 | 122 | 1.0 | 6.0 | 0.00 | 0.00 | 0.00 | 21 | 1010.0 |
| 20260507012525 | 78 | 141 | 2.0 | 6.0 | 0.00 | 0.00 | 0.00 | 21 | 1010.0 |
| 20260507012028 | 78 | 86 | 1.0 | 8.0 | 0.00 | 0.00 | 0.00 | 21 | 1010.1 |
| 20260507011528 | 78 | 93 | 3.0 | 9.0 | 0.00 | 0.00 | 0.00 | 21 | 1010.0 |
| 20260507011025 | 78 | 138 | 3.0 | 10.0 | 0.00 | 0.00 | 0.00 | 21 | 1010.0 |
| 20260507010525 | 78 | 146 | 4.0 | 10.0 | 0.00 | 0.00 | 0.00 | 21 | 1010.0 |
| 20260507010024 | 78 | 140 | 2.0 | 7.0 | 0.00 | 0.00 | 0.00 | 21 | 1010.1 |
| 20260507005524 | 78 | 136 | 5.0 | 7.0 | 0.00 | 0.00 | 0.00 | 21 | 1010.1 |
| 20260507005022 | 78 | 147 | 1.0 | 8.0 | 0.00 | 0.00 | 0.00 | 21 | 1010.1 |
| 20260507004524 | 78 | 126 | 4.0 | 8.0 | 0.00 | 0.00 | 0.00 | 21 | 1010.2 |
| 20260507004025 | 78 | 100 | 1.0 | 6.0 | 0.00 | 0.00 | 0.00 | 21 | 1010.1 |
| 20260507003522 | 78 | 93 | 1.0 | 7.0 | 0.00 | 0.00 | 0.00 | 21 | 1010.0 |
| 20260507003022 | 78 | 98 | 2.0 | 11.0 | 0.00 | 0.00 | 0.00 | 21 | 1010.0 |
| 20260507002521 | 78 | 132 | 3.0 | 11.0 | 0.00 | 0.00 | 0.00 | 21 | 1010.0 |
| 20260507002021 | 78 | 154 | 0.0 | 7.0 | 0.00 | 0.00 | 0.00 | 21 | 1010.1 |
| 20260507001526 | 79 | 90 | 1.0 | 6.0 | 0.00 | 0.00 | 0.00 | 21 | 1010.1 |
| 20260507001020 | 79 | 56 | 1.0 | 10.0 | 0.00 | 0.00 | 0.00 | 21 | 1010.0 |
| 20260507000520 | 79 | 67 | 3.0 | 10.0 | 0.00 | 0.00 | 0.00 | 21 | 1010.0 |
| 20260507000030 | 79 | 85 | 2.0 | 7.0 | 0.00 | 0.00 | 0.00 | 21 | 1010.0 |
| 20260506235519 | 79 | 137 | 1.0 | 8.0 | 0.00 | 0.00 | 0.00 | 21 | 1010.0 |
| 20260506235018 | 78 | 126 | 3.0 | 8.0 | 0.00 | 0.00 | 0.00 | 21 | 1010.0 |
| 20260506234518 | 78 | 85 | 2.0 | 9.0 | 0.00 | 0.00 | 0.00 | 21 | 1009.9 |
| 20260506234017 | 78 | 123 | 3.0 | 9.0 | 0.00 | 0.00 | 0.00 | 21 | 1010.0 |
| 20260506233516 | 79 | 141 | 3.0 | 9.0 | 0.00 | 0.00 | 0.00 | 21 | 1010.0 |
| 20260506233016 | 79 | 119 | 2.0 | 7.0 | 0.00 | 0.00 | 0.00 | 21 | 1010.0 |
| 20260506232515 | 79 | 190 | 0.0 | 4.0 | 0.00 | 0.00 | 0.00 | 21 | 1010.2 |
| 20260506232015 | 79 | 202 | 1.0 | 6.0 | 0.00 | 0.00 | 0.00 | 21 | 1010.2 |
| 20260506231514 | 78 | 110 | 0.0 | 6.0 | 0.00 | 0.00 | 0.00 | 21 | 1010.3 |
| 20260506231012 | 79 | 119 | 1.0 | 7.0 | 0.00 | 0.00 | 0.00 | 22 | 1010.4 |
| 20260506230512 | 78 | 142 | 1.0 | 8.0 | 0.00 | 0.00 | 0.00 | 22 | 1010.4 |
| 20260506230012 | 78 | 142 | 4.0 | 12.0 | 0.00 | 0.00 | 0.00 | 22 | 1010.4 |
| 20260506225515 | 78 | 111 | 6.0 | 12.0 | 0.00 | 0.00 | 0.00 | 22 | 1010.5 |
| 20260506225010 | 78 | 125 | 3.0 | 10.0 | 0.00 | 0.00 | 0.00 | 22 | 1010.6 |
| 20260506224510 | 78 | 131 | 3.0 | 9.0 | 0.00 | 0.00 | 0.00 | 23 | 1010.6 |
| 20260506224009 | 77 | 162 | 2.0 | 11.0 | 0.00 | 0.00 | 0.00 | 23 | 1010.7 |
| 20260506223509 | 78 | 84 | 4.0 | 11.0 | 0.00 | 0.00 | 0.00 | 23 | 1010.8 |
| 20260506223008 | 78 | 94 | 3.0 | 10.0 | 0.00 | 0.00 | 0.00 | 22 | 1010.7 |
| 20260506222508 | 78 | 136 | 5.0 | 10.0 | 0.00 | 0.00 | 0.00 | 22 | 1010.8 |
| 20260506222008 | 77 | 100 | 4.0 | 10.0 | 0.00 | 0.00 | 0.00 | 23 | 1010.9 |
| 20260506221507 | 77 | 99 | 1.0 | 12.0 | 0.00 | 0.00 | 0.00 | 23 | 1011.0 |
| 20260506221009 | 77 | 55 | 4.0 | 12.0 | 0.00 | 0.00 | 0.00 | 23 | 1011.1 |
| 20260506220508 | 78 | 55 | 4.0 | 9.0 | 0.00 | 0.00 | 0.00 | 23 | 1011.2 |
| 20260506220015 | 77 | 146 | 2.0 | 10.0 | 0.00 | 0.00 | 0.00 | 23 | 1011.3 |
| 20260506215507 | 77 | 139 | 6.0 | 10.0 | 0.00 | 0.00 | 0.00 | 23 | 1011.4 |
| 20260506215005 | 77 | 67 | 2.0 | 11.0 | 0.00 | 0.00 | 0.00 | 23 | 1011.4 |
| 20260506214505 | 77 | 92 | 5.0 | 11.0 | 0.00 | 0.00 | 0.00 | 23 | 1011.5 |
| 20260506214004 | 77 | 142 | 5.0 | 11.0 | 0.00 | 0.00 | 0.00 | 23 | 1011.6 |
| 20260506213602 | 77 | 94 | 3.0 | 10.0 | 0.00 | 0.00 | 0.00 | 23 | 1011.6 |
| 20260506213002 | 77 | 137 | 2.0 | 10.0 | 0.00 | 0.00 | 0.00 | 23 | 1011.6 |
| 20260506212501 | 78 | 89 | 1.0 | 8.0 | 0.00 | 0.00 | 0.00 | 23 | 1011.7 |
| 20260506212001 | 77 | 113 | 3.0 | 9.0 | 0.00 | 0.00 | 0.00 | 23 | 1011.8 |
| 20260506211600 | 77 | 118 | 3.0 | 9.0 | 0.00 | 0.00 | 0.00 | 23 | 1011.8 |
| 20260506211502 | 77 | 143 | 4.0 | 11.0 | 0.00 | 0.00 | 0.00 | 23 | 1011.7 |
| 20260506211100 | 77 | 11 | 3.0 | 11.0 | 0.00 | 0.00 | 0.00 | 23 | 1011.8 |
| 20260506210600 | 77 | 62 | 3.0 | 11.0 | 0.00 | 0.00 | 0.00 | 23 | 1011.8 |
| 20260506210059 | 77 | 135 | 6.0 | 11.0 | 0.00 | 0.00 | 0.00 | 23 | 1011.9 |
| 20260506205558 | 77 | 323 | 2.0 | 10.0 | 0.00 | 0.00 | 0.00 | 23 | 1011.9 |
| 20260506205057 | 76 | 286 | 3.0 | 10.0 | 0.00 | 0.00 | 0.00 | 24 | 1012.0 |
| 20260506204557 | 76 | 355 | 1.0 | 6.0 | 0.00 | 0.00 | 0.00 | 24 | 1012.1 |
| 20260506204056 | 76 | 360 | 1.0 | 9.0 | 0.00 | 0.00 | 0.00 | 24 | 1012.1 |
| 20260506203600 | 76 | 84 | 3.0 | 12.0 | 0.00 | 0.00 | 0.00 | 24 | 1012.1 |
| 20260506203056 | 76 | 103 | 2.0 | 12.0 | 0.00 | 0.00 | 0.00 | 24 | 1012.2 |
| 20260506202557 | 76 | 163 | 4.0 | 10.0 | 0.00 | 0.00 | 0.00 | 25 | 1012.1 |
| 20260506202055 | 75 | 92 | 2.0 | 10.0 | 0.00 | 0.00 | 0.00 | 25 | 1012.2 |
| 20260506201554 | 75 | 39 | 2.0 | 10.0 | 0.00 | 0.00 | 0.00 | 25 | 1012.3 |
| 20260506201055 | 75 | 5 | 3.0 | 10.0 | 0.00 | 0.00 | 0.00 | 25 | 1012.3 |
| 20260506200554 | 75 | 135 | 4.0 | 11.0 | 0.00 | 0.00 | 0.00 | 26 | 1012.4 |
| 20260506200051 | 75 | 103 | 3.0 | 11.0 | 0.00 | 0.00 | 0.00 | 26 | 1012.5 |
| 20260506195551 | 74 | 74 | 2.0 | 7.0 | 0.00 | 0.00 | 0.00 | 26 | 1012.6 |
| 20260506195053 | 74 | 85 | 4.0 | 12.0 | 0.00 | 0.00 | 0.00 | 26 | 1012.7 |
| 20260506194556 | 74 | 153 | 1.0 | 12.0 | 0.00 | 0.00 | 0.00 | 26 | 1012.6 |
| 20260506194054 | 75 | 113 | 3.0 | 11.0 | 0.00 | 0.00 | 0.00 | 26 | 1012.6 |
| 20260506193550 | 74 | 146 | 3.0 | 9.0 | 0.00 | 0.00 | 0.00 | 27 | 1012.6 |